Location: Beekmeers
(50.8953°N, 3.6968°E)
Time: 14:07:52
(UTC+00:00)

Timation 1 Rocket - Pass Details

Date: 23 May 2024
Orbit: 898 x 907 km, 70.0° (Epoch: 16 June)

Event Time Altitude Azimuth Distance (km) Brightness Sun altitude
Exits shadow 02:32:21 12° 218° (SW) 2,461 5.9 -9.3°
Maximum altitude 02:37:59 75° 303° (WNW) 934 4.4 -8.7°
Drops below altitude 10° 02:43:58 10° 30° (NNE) 2,585 8.3 -8.0°
Sets 02:46:29 0° 32° (NNE) 3,530 9.5 -7.8°
